Theta_e
322 322 323 323 324 325 325 325 325 325 326 326 326 326 326 327 325 317 309 318 320 327 323 314 313 312 314 312 312 310 298 296 299 298 298 301 299 301 300 298 300 303 300 300 303
320 319 320 321 322 323 324 325 325 325 325 325 325 325 326 325 317 312 323 328 328 327 314 310 309 310 307 309 308 303 299 301 301 301 298 301 300 300 297 298 299 300 301 302 301
319 319 319 319 320 322 323 323 324 324 324 324 325 325 325 322 312 312 329 329 328 324 315 312 311 310 306 308 306 303 298 302 302 302 302 301 300 302 298 297 299 300 301 299 298
318 318 318 318 319 320 321 322 323 324 324 324 324 324 324 320 300 314 326 326 325 317 312 309 309 306 303 303 307 299 304 304 305 303 301 299 301 299 300 300 303 302 304 299 298
319 318 318 318 318 319 320 321 322 323 323 323 324 324 320 309 308 315 321 321 315 313 309 308 305 306 303 303 304 300 301 304 303 301 300 302 299 299 299 302 305 303 302 299 299
318 318 317 317 318 318 319 319 321 322 323 323 323 323 313 301 314 314 310 312 312 309 307 308 306 307 303 302 300 301 301 301 302 302 301 298 298 298 299 303 303 303 300 300 300
318 318 317 317 317 318 319 319 320 321 322 322 323 320 310 305 314 312 310 309 309 308 306 308 308 305 306 302 304 301 296 299 300 300 299 300 295 296 301 300 300 301 301 300 300
317 316 317 317 317 317 318 319 319 320 322 323 323 317 305 313 313 310 310 308 309 309 309 309 308 306 304 303 300 295 295 291 297 300 298 297 290 299 302 300 298 299 298 300 300
316 316 316 317 317 316 317 317 318 321 322 321 317 313 303 314 309 311 310 307 307 308 308 308 309 303 301 295 293 295 289 292 296 300 297 295 292 298 299 298 297 298 298 299 300
316 316 317 317 317 317 317 318 320 317 317 318 313 306 306 305 309 309 308 308 305 305 304 303 301 297 296 293 287 290 291 293 292 295 295 292 292 297 299 297 297 298 298 299 300
317 316 317 317 317 318 315 312 306 307 308 304 305 304 305 309 311 307 307 305 305 302 295 299 293 291 294 297 297 295 293 292 295 298 294 293 294 296 299 297 297 300 300 299 300
317 317 317 317 317 317 314 305 306 305 297 304 304 306 308 309 303 306 306 299 299 294 297 295 292 297 299 298 295 293 291 292 295 296 294 292 292 296 297 298 299 299 300 300 299
318 317 316 317 317 315 309 307 312 311 299 300 303 302 303 306 301 302 302 300 297 294 295 292 295 300 297 295 293 293 291 291 291 294 291 289 287 291 295 298 299 300 300 300 298
318 317 316 316 312 311 307 310 311 311 290 294 298 302 303 304 297 304 303 300 297 294 295 294 298 296 294 293 294 289 294 293 292 288 284 290 281 289 292 294 295 296 296 298 296
317 317 317 315 309 307 307 310 309 306 280 297 295 305 304 298 297 297 300 298 295 294 294 292 292 292 292 293 295 291 293 290 289 288 286 287 283 287 292 290 293 295 296 298 296
317 317 316 313 313 312 312 310 305 288 279 292 297 296 296 297 296 296 296 298 297 294 294 293 295 293 293 292 293 292 290 288 287 285 279 285 285 285 288 291 292 294 295 296 296
317 316 313 315 309 312 311 305 288 281 294 292 293 295 294 294 294 293 291 289 288 285 286 290 292 293 293 289 290 289 287 280 278 277 279 287 284 289 290 292 293 293 295 295 296
317 316 313 314 313 312 306 294 281 292 292 296 295 295 291 294 294 292 291 288 291 290 287 286 285 291 292 292 290 287 288 281 274 275 282 285 280 286 294 296 294 295 296 294 294
317 314 312 312 313 311 298 284 285 294 296 294 294 289 290 292 293 292 289 290 292 292 287 286 286 289 290 290 293 287 283 289 283 277 276 284 286 290 292 293 293 294 293 292 292
313 310 309 314 312 306 292 288 289 297 297 293 287 290 287 290 289 290 290 293 293 295 296 291 286 289 286 288 288 286 289 282 283 273 272 282 281 285 289 292 292 290 291 292 293
310 304 311 314 311 299 286 288 294 298 297 294 292 289 288 287 289 289 290 293 294 294 296 292 289 285 286 283 285 283 283 284 285 283 277 278 282 287 291 292 292 291 292 293 294
307 297 309 310 296 295 290 293 297 297 299 296 293 291 291 291 288 287 287 289 295 295 290 292 289 284 287 289 288 288 287 286 282 281 280 281 284 291 291 291 293 292 293 294 294
300 301 308 308 292 292 290 293 296 295 295 295 293 294 293 289 286 289 290 295 296 294 290 291 285 280 283 286 284 284 286 289 289 286 283 280 283 293 296 294 292 291 291 293 293
298 292 297 300 302 296 295 291 291 297 295 296 295 295 291 290 292 289 290 293 296 295 296 295 287 284 280 284 287 285 286 287 286 282 283 283 285 290 293 293 295 296 296 293 293
296 292 297 289 290 293 295 294 292 291 296 297 293 293 290 288 289 287 289 291 294 295 292 290 283 285 287 288 288 287 286 286 284 285 281 285 285 289 292 293 295 296 296 294 295
290 292 291 289 290 289 290 289 290 293 294 292 291 294 294 289 291 290 291 291 290 290 290 290 283 284 282 285 285 283 286 286 286 286 287 286 285 292 294 295 294 294 295 294 295
295 294 289 286 287 286 287 289 290 292 293 296 295 294 292 294 296 297 298 298 296 292 288 286 284 282 279 284 283 280 284 285 286 288 287 283 288 293 293 293 294 295 296 296 296
Wind_Speed
17 18 18 18 18 18 17 17 16 15 13 12 13 11 8 8 4 4 7 2 6 7 1 4 5 6 5 4 2 1 3 6 8 1 0 6 5 5 1 2 3 8 3 4 17
16 16 17 18 18 19 18 18 17 16 15 13 13 11 9 7 5 11 5 12 11 7 4 5 6 7 4 4 4 4 3 6 3 6 3 7 7 6 2 5 7 5 7 7 12
16 16 17 17 18 19 19 19 17 16 15 15 13 11 8 6 5 3 5 11 10 7 4 5 5 4 7 5 6 6 5 0 4 2 4 6 6 7 7 9 8 12 11 13 10
16 17 18 18 18 19 19 19 17 17 16 14 14 12 8 4 6 3 6 7 8 6 4 4 5 3 5 8 9 5 10 9 2 3 1 4 4 7 12 12 2 3 5 18 19
11 13 15 18 20 21 20 19 19 17 16 16 13 9 5 5 7 6 7 6 6 5 6 7 8 8 8 6 5 8 9 7 5 3 5 8 9 8 13 11 14 7 1 16 16
12 12 14 18 19 22 23 22 20 17 17 17 12 6 4 9 5 11 7 6 6 7 8 6 5 2 5 7 7 3 7 10 7 9 7 6 6 5 9 15 14 10 11 11 15
10 11 12 15 18 21 23 24 24 20 18 15 7 4 6 13 5 7 7 4 3 4 8 6 4 4 3 7 6 3 8 9 11 10 5 5 10 16 22 5 8 11 11 12 13
9 10 11 13 16 19 23 25 24 23 17 8 4 5 8 2 4 4 7 4 4 3 3 5 2 5 3 4 4 4 5 5 3 12 7 9 15 12 18 12 13 11 9 10 13
9 10 11 13 15 18 21 26 25 19 7 3 5 5 7 2 4 7 7 4 6 4 2 2 2 4 4 3 5 9 7 10 9 11 9 10 11 3 4 5 7 10 11 11 12
10 11 12 13 15 19 23 25 10 5 5 5 6 2 5 3 4 5 2 3 4 7 4 5 5 4 5 7 9 7 10 10 10 8 7 7 17 15 9 6 11 11 11 13 13
10 10 11 13 16 18 14 7 3 3 5 8 5 5 4 4 0 5 5 6 4 4 7 7 6 14 20 16 18 13 15 16 20 8 9 16 17 18 17 9 12 16 17 13 14
10 10 10 13 15 18 10 4 6 2 10 11 17 12 2 7 6 9 7 8 7 11 8 4 17 19 9 11 9 8 12 17 16 8 9 11 13 12 10 16 16 17 17 19 11
10 11 11 14 14 9 7 5 6 5 7 8 12 8 4 8 8 13 15 7 8 8 15 20 8 18 10 11 12 18 13 19 18 12 5 4 8 13 12 18 20 19 19 19 12
10 9 10 15 6 6 2 7 6 7 7 6 5 0 3 2 6 4 12 6 8 14 11 18 17 18 15 16 10 21 9 10 11 7 10 9 9 8 7 10 10 15 13 17 9
11 9 5 4 7 4 4 5 6 3 11 3 3 2 2 6 2 2 4 2 13 7 5 8 4 6 13 20 10 15 5 4 4 6 6 7 9 8 12 10 12 11 13 17 6
11 10 5 4 4 3 2 5 2 3 13 3 5 6 4 5 1 1 2 3 2 5 12 17 3 3 4 3 1 4 1 4 3 2 10 12 13 8 9 10 6 8 12 9 8
13 12 10 3 1 1 1 2 4 11 3 6 5 6 4 6 6 7 6 6 6 4 9 6 20 5 5 2 1 3 4 4 4 3 13 13 15 16 5 8 10 11 19 9 9
12 12 9 7 1 4 3 4 12 5 19 1 5 7 6 7 8 9 5 7 13 9 4 6 6 18 10 16 7 9 9 8 8 5 18 5 10 7 9 12 12 14 15 10 10
11 3 3 9 6 6 7 4 13 4 5 8 15 6 8 7 7 7 9 8 9 21 12 8 8 6 5 2 9 6 8 4 3 1 4 11 11 7 7 11 11 15 7 9 9
3 2 4 12 10 6 4 11 11 10 6 4 10 10 13 11 10 10 10 7 11 16 18 5 9 7 3 4 3 3 1 3 2 3 9 22 10 16 8 17 11 8 9 7 8
3 4 2 16 9 5 8 14 13 14 12 9 15 17 18 17 16 14 14 13 7 4 18 5 7 3 8 10 11 3 4 5 2 6 8 14 14 3 5 6 9 10 7 7 9
3 6 8 12 7 5 11 7 7 15 13 11 6 14 25 24 20 12 13 9 18 6 4 5 1 5 15 4 1 8 11 11 9 12 4 6 30 8 4 3 8 7 8 8 8
4 4 7 8 11 12 4 11 13 16 17 9 11 11 13 19 14 17 22 24 25 9 4 5 3 4 13 12 3 7 7 12 11 7 16 20 26 8 21 19 8 9 9 8 9
3 5 3 5 12 21 22 16 19 17 25 24 11 11 8 15 15 12 12 14 13 19 8 4 10 13 16 15 8 9 14 13 15 11 25 22 31 34 28 23 23 23 15 10 12
3 5 4 4 7 15 22 22 30 25 24 14 12 28 19 15 19 18 23 26 19 16 7 5 11 19 28 31 31 30 30 27 13 22 23 27 25 29 34 18 24 19 14 6 12
4 4 4 4 7 9 7 13 25 27 23 22 29 23 27 27 27 22 20 18 19 5 19 15 10 17 23 28 28 30 27 27 34 34 30 30 32 35 31 29 28 25 27 14 18
3 2 1 5 9 10 13 6 6 13 11 24 28 24 28 29 28 30 28 26 19 13 11 8 9 9 15 22 24 20 35 36 34 31 35 31 42 40 29 33 32 30 25 19 15
Wind_Direction
14 9 6 5 4 2 360 358 357 355 353 353 351 342 333 324 305 194 243 200 144 141 177 140 201 201 237 233 225 255 280 267 269 302 218 107 204 147 84 184 205 182 334 71 137
8 5 1 358 355 355 354 351 350 347 345 344 343 338 332 334 256 251 162 124 132 154 218 211 205 171 242 215 193 216 229 259 25 354 287 163 213 169 196 222 226 198 111 119 143
358 357 355 352 350 348 347 345 341 340 338 335 336 330 325 314 270 224 100 130 142 173 272 310 304 239 233 233 203 219 230 209 316 315 356 292 215 242 180 250 207 215 191 161 164
350 349 347 346 344 341 339 337 334 332 330 326 326 323 321 234 269 94 135 137 156 205 233 204 237 211 233 230 223 263 244 262 326 59 302 247 288 258 218 230 340 207 231 165 177
343 344 343 341 338 335 333 331 327 324 321 317 318 318 280 222 249 141 138 147 166 190 208 210 225 226 251 266 240 220 267 276 265 182 248 279 257 255 259 247 240 232 180 172 187
332 337 341 337 333 331 329 325 321 318 314 310 308 308 245 248 107 145 154 156 211 204 206 228 235 334 303 256 264 31 296 290 258 213 220 230 256 213 239 236 243 230 194 196 196
329 333 331 329 329 329 325 321 317 313 310 305 287 220 257 245 138 143 163 192 184 238 239 225 314 219 340 261 342 291 301 266 239 217 233 174 273 231 244 248 233 228 214 198 212
321 324 324 323 326 326 323 316 311 306 301 283 225 217 252 26 101 175 165 141 194 213 286 55 266 258 230 350 248 227 227 278 230 176 162 140 270 228 246 208 216 233 243 221 210
307 311 310 314 317 321 320 311 302 292 265 194 192 239 252 179 190 179 187 190 152 141 71 159 229 231 132 204 277 222 251 236 264 180 135 177 255 263 81 147 215 227 234 234 224
301 304 309 313 316 319 321 301 279 308 249 222 270 268 186 204 124 155 164 183 179 150 165 197 208 214 212 195 225 222 230 248 250 195 185 204 251 267 242 213 244 245 236 239 241
291 300 308 312 316 320 332 336 274 222 232 224 197 239 121 72 13 213 184 160 192 217 200 195 183 214 220 214 232 256 267 270 270 257 176 231 240 251 261 239 256 262 259 251 246
284 296 307 305 311 314 301 308 135 206 295 253 258 250 153 174 189 197 170 180 181 211 207 218 225 229 244 252 263 271 271 266 277 295 209 249 253 254 263 267 253 256 266 260 254
277 294 306 308 310 307 331 17 324 304 248 220 224 217 218 169 236 194 172 192 195 214 208 221 194 214 228 249 248 247 244 259 264 285 222 322 267 254 252 252 260 262 253 258 242
260 276 304 311 286 331 54 336 325 316 271 228 178 76 114 237 263 5 196 180 224 222 217 254 242 245 255 247 212 263 230 257 266 278 256 158 282 222 226 230 227 244 253 255 237
253 251 279 325 307 318 340 328 323 253 282 97 156 248 85 203 62 23 348 34 234 196 190 221 201 193 228 239 225 265 169 218 267 260 303 252 280 227 200 233 243 237 253 260 218
233 233 165 225 216 279 330 309 254 244 247 193 132 173 171 187 169 74 265 307 347 282 262 261 99 275 247 70 91 129 115 218 233 206 256 205 214 230 200 210 222 232 248 242 155
233 220 173 209 333 108 257 283 261 224 222 183 212 166 213 193 197 185 175 197 197 180 221 217 235 172 136 174 164 179 142 282 293 194 250 187 223 237 182 177 191 211 243 149 155
249 236 207 202 195 125 34 76 246 256 224 317 160 182 203 177 229 190 214 227 221 245 295 210 269 180 178 208 174 187 178 172 234 215 274 229 255 247 213 230 207 203 244 155 170
283 204 186 190 183 114 117 176 221 246 288 308 308 265 235 204 224 167 224 258 209 192 210 212 246 26 144 140 158 183 211 198 249 128 311 233 264 306 255 238 218 225 161 174 181
283 232 209 174 150 141 129 234 244 227 335 17 265 297 285 252 193 191 192 226 231 198 216 271 269 177 118 48 287 199 202 126 223 250 240 276 281 271 196 234 219 225 218 223 204
261 250 228 149 134 211 204 214 240 240 237 249 239 271 278 287 288 273 244 251 203 232 198 219 214 223 125 197 183 156 237 233 246 189 223 273 269 295 160 149 195 222 219 230 204
227 247 143 143 191 219 216 212 232 255 234 249 238 252 250 263 271 285 287 294 329 352 197 205 230 248 233 180 236 215 224 183 216 237 233 231 265 153 120 137 148 191 196 204 193
232 254 192 172 227 225 239 239 240 246 242 204 230 223 241 247 256 251 262 266 288 282 293 342 355 327 305 290 192 201 210 230 245 259 241 242 261 181 255 265 229 184 211 213 213
286 258 221 255 228 231 236 228 236 238 252 248 247 227 230 238 236 258 243 251 243 258 87 135 221 218 236 240 261 267 237 235 225 240 248 245 259 275 266 269 277 275 274 208 219
216 249 237 226 257 280 262 250 246 244 228 226 222 235 223 242 238 227 240 253 255 248 148 188 223 224 234 243 253 256 264 271 261 243 244 267 259 264 270 265 262 270 268 249 281
291 307 9 319 297 277 277 251 271 258 251 234 231 232 225 230 230 241 228 232 237 240 213 177 226 214 231 238 247 255 259 261 253 252 253 254 269 253 270 278 273 272 267 272 268
18 359 297 251 276 286 264 272 284 302 287 278 265 250 235 233 234 238 248 252 259 231 214 193 209 206 234 229 241 246 238 245 253 247 242 246 244 260 261 258 262 270 277 271 258